首页资源分类嵌入式系统 > GPS的NMEA语句

GPS的NMEA语句

已有 445025个资源

下载专区

上传者其他资源

文档信息举报收藏

标    签:GPS格式NMEA格式

分    享:

文档简介

GPS格式,NMEA格式,原始输出的NMEA语句

文档预览

$GPRMC,014605.00,A,2222.46918,N,11333.95122,E,0.004,,070515,,,A*78 $GPVTG,,T,,M,0.004,N,0.007,K,A*20 $GPGGA,014605.00,2222.46918,N,11333.95122,E,1,07,1.21,28.1,M,-3.7,M,,*71 $GPGSA,A,3,25,26,18,22,31,12,14,,,,,,2.06,1.21,1.67*0A $GPGSV,3,1,10,08,31,191,38,09,,,22,10,,,17,12,24,043,36*7B $GPGSV,3,2,10,14,49,358,34,18,49,158,34,22,78,221,39,25,57,072,29*78 $GPGSV,3,3,10,26,16,201,36,31,45,272,38*72 $GPGLL,2222.46918,N,11333.95122,E,014605.00,A,A*63 $GPRMC,014606.00,A,2222.46919,N,11333.95120,E,0.033,,070515,,,A*7C $GPVTG,,T,,M,0.033,N,0.061,K,A*24 $GPGGA,014606.00,2222.46919,N,11333.95120,E,1,07,1.21,28.0,M,-3.7,M,,*70 $GPGSA,A,3,25,26,18,22,31,12,14,,,,,,2.06,1.21,1.67*0A $GPGSV,3,1,10,08,31,191,38,09,,,19,10,,,12,12,24,043,36*76 $GPGSV,3,2,10,14,49,358,34,18,49,158,34,22,78,221,39,25,57,072,32*72 $GPGSV,3,3,10,26,16,201,36,31,45,272,38*72 $GPGLL,2222.46919,N,11333.95120,E,014606.00,A,A*63 $GPRMC,014607.00,A,2222.46922,N,11333.95113,E,0.031,,070515,,,A*77 $GPVTG,,T,,M,0.031,N,0.058,K,A*2C $GPGGA,014607.00,2222.46922,N,11333.95113,E,1,07,1.21,27.8,M,-3.7,M,,*7E $GPGSA,A,3,25,26,18,22,31,12,14,,,,,,2.06,1.21,1.67*0A $GPGSV,3,1,10,08,31,191,39,10,,,11,12,24,043,38,13,,,28*73 $GPGSV,3,2,10,14,49,358,35,18,49,158,32,22,78,221,41,25,57,072,29*70 $GPGSV,3,3,10,26,16,201,37,31,45,272,39*72 $GPGLL,2222.46922,N,11333.95113,E,014607.00,A,A*6A $GPRMC,014608.00,A,2222.46924,N,11333.95113,E,0.026,,070515,,,A*78 $GPVTG,,T,,M,0.026,N,0.048,K,A*2B $GPGGA,014608.00,2222.46924,N,11333.95113,E,1,07,1.21,27.7,M,-3.7,M,,*78 $GPGSA,A,3,25,26,18,22,31,12,14,,,,,,2.06,1.21,1.67*0A $GPGSV,2,1,08,08,31,191,39,12,24,043,35,14,49,358,35,18,49,158,35*71 $GPGSV,2,2,08,22,78,221,38,25,57,072,34,26,16,201,37,31,45,272,40*77 $GPGLL,2222.46924,N,11333.95113,E,014608.00,A,A*63 $GPRMC,014609.00,A,2222.46916,N,11333.95127,E,0.027,,070515,,,A*7E $GPVTG,,T,,M,0.027,N,0.049,K,A*2B $GPGGA,014609.00,2222.46916,N,11333.95127,E,1,07,1.21,27.7,M,-3.7,M,,*7F $GPGSA,A,3,25,26,18,22,31,12,14,,,,,,2.06,1.21,1.67*0A $GPGSV,3,1,10,08,31,191,41,10,,,24,12,24,043,38,13,,,28*7A $GPGSV,3,2,10,14,49,358,38,18,49,158,38,22,78,221,40,25,57,072,34*7A $GPGSV,3,3,10,26,16,201,38,31,45,272,41*72 $GPGLL,222.46916,N,11333.95127,E,014609.0,A,A*64 GPRMC,014610.00,A,2222.46918,N,1333.95128,E,0.061,,070515,,,A*5 $GPVTG,,T,,M,0.061,N,0.113,K,A*27 $GPGGA,014610.00,2222.46918,N,11333.95128,E,1,07,1.21,27.6,M,-3.7,M,,*77 $GPGSA,A,3,25,26,18,22,31,12,14,,,,,,2.06,1.21,1.67*0A $GPGSV,3,1,10,08,31,191,38,10,,,20,12,24,043,35,13,,,26*73 $GPGSV,3,2,10,14,49,358,35,18,49,158,35,22,78,221,39,25,57,072,31*71 $GPGSV,3,3,10,26,16,201,36,31,45,272,37*7D $GPGLL,2222.46918,N,11333.95128,E,014610.00,A,A*6D GPRMC,014611.00,A,2222.46921,N,1333.95124,E,0.073,,070515,,,A*1 $GPVTG,,T,,M,0.073,N,0.135,K,A*20 $GPGGA,014611.00,2222.46921,N,11333.95124,E,1,07,1.21,27.5,M,-3.7,M,,*73 $GPGSA,A,3,25,26,18,22,31,12,14,,,,,,2.06,1.21,1.67*0A $GPGSV,3,1,10,08,31,191,37,12,24,043,35,13,,,24,14,49,358,35*4D $GPGSV,3,2,10,15,,,24,18,49,158,31,22,78,221,38,25,57,072,30*47 $GPGSV,3,3,10,26,16,201,34,31,45,272,37*7F $GPGLL,2222.46921,N,11333.95124,E,014611.00,A,A*6A $GPRMC,014612.00,A,2222.46924,N,11333.95121,E,0.075,,070515,,,A*74 $GPVTG,,T,,M,0.075,N,0.139,K,A*2A $GPGGA,014612.00,2222.46924,N,11333.95121,E,1,07,1.21,27.5,M,-3.7,M,,*70 $GPGSA,A,3,25,26,18,22,31,12,14,,,,,,2.06,1.21,1.67*0A $GPGSV,3,1,11,08,31,191,39,10,,,23,12,24,043,35,13,,,23*75 $GPGSV,3,2,11,14,49,358,35,15,,,24,18,49,158,32,22,78,221,39*47 $GPGSV,3,3,11,25,57,072,31,26,16,201,34,31,45,272,37*4C $GPGLL,2222.46924,N,11333.95121,E,014612.00,A,A*69 $GPRMC,014613.00,A,2222.46927,N,11333.95118,E,0.052,,070515,,,A*9 $GPVTG,,T,,M,0.052,N,0.096,K,A*2B $GPGGA,014613.00,2222.46927,N,11333.95118,E,1,07,1.21,27.5,M,-3.7,M,,*78 $GPGSA,A,3,25,26,18,22,31,12,14,,,,,,2.06,1.21,1.67*0A $GPGSV,3,1,11,08,31,191,41,10,,,22,12,24,043,37,13,,,22*78 $GPGSV,3,2,11,14,49,358,37,16,,,28,18,49,158,35,22,78,221,41*42 $GPGSV,3,3,11,25,57,072,30,26,16,201,37,31,45,272,39*40 $GPGLL,2222.46927,N,11333.95118,E,014613.00,A,A*61 $GPRMC,014614.00,A,2222.46928,N,11333.95117,E,0.007,,070515,,,A*7E $GPVTG,,T,,M,0.007,N,0.013,K,A*26 $GPGGA,014614.00,2222.46928,N,11333.95117,E,1,07,1.21,27.5,M,-3.7,M,,*7F $GPGSA,A,3,25,26,18,22,31,12,14,,,,,,2.07,1.21,1.67*0B $GPGSV,3,1,10,08,31,191,40,12,24,043,37,13,,,22,14,49,358,37*4B $GPGSV,3,2,10,16,,,27,18,49,158,36,22,78,221,40,25,57,072,31*4E $GPGSV,3,3,10,26,16,201,35,31,45,272,39*70 $GPGLL,2222.46928,N,11333.95117,E,014614.00,A,A*66

Top_arrow
回到顶部
EEWORLD下载中心所有资源均来自网友分享,如有侵权,请发送举报邮件到客服邮箱bbs_service@eeworld.com.cn 或通过站内短信息或QQ:273568022联系管理员 高员外,我们会尽快处理。